Total_Precipitation_Accumulation
0.84 1.00 0.84 0.55 0.51 0.43 0.38 0.43 0.36 0.24 0.23 0.29 0.28 0.21 0.14 0.13 0.15 0.16 0.16 0.17 0.16 0.16 0.15 0.17 0.23 0.28 0.37 0.48 0.52 0.60 0.68 0.81 0.96 1.06 1.20 1.15 1.09 1.12 1.14 1.10 1.09 1.08 1.15 1.17
0.98 0.86 0.46 0.30 0.35 0.42 0.46 0.51 0.39 0.27 0.22 0.34 0.32 0.23 0.15 0.14 0.14 0.15 0.13 0.15 0.17 0.15 0.13 0.16 0.23 0.29 0.36 0.48 0.53 0.60 0.70 0.80 0.89 0.98 1.07 1.15 1.12 1.13 1.20 1.16 1.13 1.10 1.09 1.13
0.71 0.48 0.25 0.38 0.49 0.60 0.56 0.47 0.35 0.32 0.28 0.37 0.42 0.36 0.19 0.16 0.13 0.14 0.13 0.12 0.18 0.19 0.16 0.17 0.25 0.32 0.37 0.48 0.54 0.59 0.70 0.81 0.88 1.04 1.14 1.24 1.37 1.35 1.35 1.35 1.24 1.14 1.10 1.08
0.52 0.30 0.30 0.46 0.53 0.62 0.62 0.31 0.30 0.35 0.52 0.59 0.50 0.58 0.25 0.19 0.16 0.15 0.13 0.12 0.15 0.18 0.17 0.18 0.22 0.32 0.37 0.44 0.56 0.63 0.74 0.83 0.87 1.07 1.22 1.18 1.27 1.28 1.19 1.13 1.19 1.16 1.11 1.08
0.68 0.36 0.38 0.48 0.38 0.43 0.47 0.27 0.35 0.46 0.61 0.70 0.50 0.57 0.30 0.17 0.17 0.14 0.11 0.10 0.12 0.15 0.15 0.15 0.16 0.22 0.31 0.38 0.52 0.64 0.77 0.87 0.91 0.99 1.19 1.22 1.16 1.14 1.14 1.16 1.15 1.19 1.19 1.13
0.58 0.39 0.45 0.39 0.26 0.33 0.45 0.54 0.63 0.72 1.03 1.22 0.45 0.44 0.35 0.29 0.30 0.19 0.12 0.10 0.12 0.13 0.15 0.14 0.12 0.15 0.28 0.38 0.49 0.60 0.73 0.85 0.92 0.94 1.06 1.22 1.17 1.12 1.11 1.16 1.19 1.19 1.23 1.20
0.71 0.51 0.42 0.36 0.46 0.58 0.79 1.18 1.70 1.77 1.76 1.02 0.21 0.32 0.39 0.29 0.25 0.24 0.18 0.13 0.12 0.12 0.15 0.16 0.14 0.14 0.23 0.33 0.44 0.55 0.67 0.77 0.83 0.88 0.96 1.04 1.15 1.11 1.03 0.99 1.05 1.14 1.21 1.18
0.81 0.66 0.48 0.43 0.53 0.75 0.85 1.05 1.35 1.29 0.86 0.33 0.16 0.30 0.32 0.22 0.16 0.15 0.12 0.11 0.11 0.11 0.11 0.12 0.15 0.17 0.21 0.25 0.31 0.45 0.56 0.71 0.84 0.89 0.90 0.95 1.04 1.14 1.05 0.97 0.96 1.02 1.08 1.04
0.82 0.57 0.34 0.33 0.33 0.49 0.76 0.81 0.67 0.85 0.62 0.41 0.30 0.26 0.20 0.09 0.08 0.10 0.09 0.09 0.11 0.11 0.11 0.11 0.14 0.17 0.19 0.25 0.27 0.37 0.46 0.61 0.81 0.95 0.94 0.94 0.98 1.06 1.07 0.98 0.94 0.96 0.98 0.99
0.87 0.68 0.33 0.31 0.43 0.54 0.62 0.73 0.89 1.23 1.03 0.56 0.32 0.27 0.28 0.16 0.13 0.11 0.11 0.11 0.10 0.12 0.13 0.13 0.14 0.17 0.19 0.23 0.27 0.32 0.41 0.49 0.63 0.84 0.99 0.98 0.95 0.95 1.02 1.04 1.00 0.96 0.95 0.97
0.85 0.88 0.54 0.49 0.70 0.74 0.71 0.95 1.17 1.20 0.88 0.65 0.42 0.37 0.34 0.25 0.20 0.17 0.14 0.13 0.12 0.12 0.13 0.13 0.14 0.17 0.21 0.23 0.29 0.35 0.40 0.47 0.54 0.65 0.83 0.95 0.96 0.99 1.03 1.06 1.02 1.01 0.99 0.97
0.83 1.04 0.72 0.45 0.45 0.44 0.61 0.82 1.02 1.23 0.88 0.50 0.44 0.38 0.27 0.20 0.18 0.17 0.15 0.12 0.10 0.10 0.11 0.11 0.12 0.18 0.22 0.27 0.31 0.37 0.44 0.46 0.50 0.58 0.70 0.82 0.93 0.98 1.03 1.01 1.04 1.09 1.08 1.01
1.18 1.53 1.26 0.83 0.70 0.65 0.74 0.67 0.72 0.87 0.83 0.54 0.42 0.32 0.18 0.13 0.12 0.12 0.14 0.14 0.12 0.10 0.10 0.11 0.13 0.18 0.24 0.29 0.32 0.38 0.45 0.44 0.46 0.57 0.67 0.78 0.89 0.93 0.97 0.93 0.96 1.11 1.22 1.18
1.48 1.57 1.11 0.89 0.73 0.69 0.65 0.52 0.50 0.79 0.97 0.54 0.28 0.22 0.15 0.12 0.12 0.12 0.14 0.15 0.14 0.11 0.11 0.12 0.15 0.18 0.22 0.25 0.31 0.35 0.42 0.47 0.50 0.53 0.64 0.73 0.83 0.85 0.86 0.86 0.85 0.98 1.15 1.24
1.27 1.26 0.57 0.29 0.24 0.32 0.36 0.33 0.37 0.50 0.50 0.41 0.23 0.20 0.18 0.16 0.16 0.16 0.16 0.15 0.15 0.12 0.12 0.13 0.15 0.18 0.23 0.27 0.32 0.34 0.39 0.48 0.54 0.53 0.61 0.65 0.72 0.81 0.82 0.80 0.83 0.91 1.04 1.11
1.18 1.13 0.56 0.30 0.18 0.23 0.28 0.23 0.24 0.27 0.23 0.21 0.16 0.18 0.19 0.18 0.16 0.15 0.15 0.15 0.16 0.14 0.13 0.14 0.15 0.18 0.24 0.29 0.33 0.38 0.41 0.45 0.53 0.53 0.58 0.61 0.69 0.81 0.84 0.78 0.81 0.92 1.02 1.07
1.16 1.16 0.99 0.55 0.24 0.43 0.48 0.28 0.24 0.25 0.23 0.21 0.23 0.23 0.20 0.18 0.17 0.18 0.18 0.18 0.17 0.16 0.15 0.15 0.18 0.21 0.25 0.30 0.32 0.38 0.42 0.46 0.52 0.54 0.55 0.61 0.70 0.75 0.83 0.82 0.84 0.95 1.04 1.06
0.96 1.12 1.34 0.89 0.64 0.91 0.45 0.20 0.20 0.25 0.26 0.23 0.21 0.17 0.17 0.20 0.20 0.22 0.20 0.21 0.20 0.20 0.21 0.18 0.20 0.23 0.23 0.27 0.28 0.32 0.38 0.49 0.56 0.56 0.53 0.60 0.68 0.70 0.80 0.85 0.87 0.98 1.06 1.04
0.52 1.00 1.49 1.23 0.89 0.47 0.25 0.23 0.30 0.38 0.39 0.27 0.20 0.14 0.13 0.15 0.19 0.24 0.20 0.19 0.21 0.22 0.25 0.23 0.22 0.22 0.22 0.25 0.26 0.26 0.32 0.45 0.55 0.59 0.53 0.56 0.65 0.70 0.77 0.83 0.90 0.98 1.06 1.03
0.50 0.94 1.59 1.35 0.99 0.48 0.32 0.21 0.25 0.36 0.51 0.29 0.20 0.17 0.16 0.20 0.30 0.29 0.23 0.21 0.21 0.20 0.22 0.24 0.22 0.21 0.22 0.25 0.26 0.24 0.28 0.37 0.48 0.57 0.50 0.52 0.59 0.63 0.71 0.78 0.88 0.96 0.96 0.95
0.90 1.38 1.55 1.12 0.88 0.36 0.24 0.22 0.27 0.56 0.63 0.32 0.25 0.23 0.23 0.29 0.31 0.27 0.26 0.26 0.25 0.24 0.22 0.21 0.22 0.23 0.25 0.27 0.26 0.26 0.29 0.33 0.42 0.54 0.50 0.52 0.56 0.60 0.67 0.77 0.80 0.88 0.92 0.90
0.73 1.00 0.97 0.86 0.92 0.47 0.27 0.33 0.57 0.65 0.36 0.27 0.26 0.24 0.25 0.24 0.21 0.20 0.23 0.27 0.30 0.27 0.23 0.23 0.22 0.23 0.24 0.25 0.28 0.29 0.32 0.34 0.40 0.50 0.52 0.56 0.61 0.63 0.66 0.72 0.72 0.76 0.86 0.89
0.53 0.71 0.78 0.73 0.60 0.39 0.34 0.42 0.45 0.37 0.30 0.25 0.25 0.24 0.24 0.22 0.21 0.22 0.24 0.28 0.31 0.29 0.25 0.25 0.25 0.23 0.23 0.24 0.29 0.34 0.38 0.38 0.43 0.48 0.51 0.57 0.65 0.68 0.69 0.68 0.70 0.75 0.81 0.88
0.43 0.42 0.52 0.49 0.35 0.27 0.26 0.26 0.26 0.24 0.24 0.24 0.23 0.24 0.23 0.22 0.20 0.22 0.24 0.28 0.29 0.29 0.28 0.28 0.28 0.27 0.25 0.25 0.29 0.36 0.41 0.40 0.44 0.47 0.49 0.55 0.60 0.67 0.70 0.66 0.64 0.67 0.76 0.88
0.34 0.37 0.40 0.35 0.23 0.22 0.21 0.20 0.20 0.18 0.16 0.17 0.17 0.17 0.19 0.20 0.20 0.22 0.25 0.28 0.32 0.32 0.32 0.30 0.31 0.31 0.29 0.28 0.31 0.38 0.41 0.41 0.45 0.44 0.44 0.48 0.51 0.63 0.73 0.73 0.67 0.66 0.67 0.83
0.23 0.29 0.35 0.31 0.22 0.27 0.24 0.19 0.18 0.18 0.16 0.17 0.17 0.15 0.15 0.17 0.19 0.20 0.22 0.26 0.33 0.37 0.35 0.33 0.33 0.33 0.33 0.33 0.36 0.41 0.42 0.42 0.43 0.43 0.43 0.45 0.49 0.57 0.68 0.72 0.74 0.80 0.78 0.81